Regional Weather Roundup
Issued by NWS

Home | Current Version | Previous Version | Graphics & Text | Print | Product List | Glossary On
Versions: 1 2 3 4 5 6 7 8 9 10 11 12 13 14 15 16 17 18 19 20 21 22 23 24 25 26 27 28 29 30 31 32 33 34 35 36 37 38 39 40 41 42 43 44 45 46 47 48 49 50
000
ASUS43 KBIS 040610
RWRND

NORTH DAKOTA REGIONAL WEATHER ROUNDUP
NATIONAL WEATHER SERVICE BISMARCK ND
100 AM CDT TUE AUG 04 2015

NOTE: "FAIR" INDICATES FEW OR NO CLOUDS BELOW 12,000 FEET WITH NO
SIGNIFICANT WEATHER AND/OR OBSTRUCTIONS TO VISIBILITY.


NDZ001>003-009>011-017-040700-
NORTHWEST NORTH DAKOTA

CITY           SKY/WX    TMP DP  RH WIND       PRES   REMARKS
WILLISTON      CLEAR     66  51  58 E6        29.97S
6HR MIN TEMP:  66; 6HR MAX TEMP:  84;

MINOT          CLEAR     60  49  66 CALM      29.97S
MINOT AFB      CLEAR     57  52  82 CALM      29.97R
$$

NDZ018>021-031>035-040>046-040700-
SOUTHWEST NORTH DAKOTA

CITY           SKY/WX    TMP DP  RH WIND       PRES   REMARKS
BISMARCK       CLEAR     55  51  86 E3        29.99R
6HR MIN TEMP:  55; 6HR MAX TEMP:  80;

DICKINSON      PTCLDY    57  49  74 E9        29.98S
GARRISON         N/A     61  52  72 CALM      29.98S
6HR MIN TEMP:  54; 6HR MAX TEMP:  79;

HETTINGER ARPT PTCLDY    64  51  62 E8        29.99F
$$

NDZ004>008-012>016-024-026-027-054-040700-
NORTHEAST NORTH DAKOTA

CITY           SKY/WX    TMP DP  RH WIND       PRES   REMARKS
GRAND FORKS    CLEAR     54  50  86 N3        29.93R
GRND FRKS AFB  CLEAR     53  49  85 NW6       29.94R
DEVILS LAKE    CLEAR     61  52  72 SW3       29.96S
$$

NDZ022-023-025-028>030-036>039-047>053-040700-
SOUTHEAST NORTH DAKOTA

CITY           SKY/WX    TMP DP  RH WIND       PRES   REMARKS
FARGO          CLEAR     56  49  77 SW6       29.95S
6HR MIN TEMP:  54; 6HR MAX TEMP:  78;

JAMESTOWN      CLEAR     56  51  84 CALM      29.98S
$$




USA.gov is the U.S. government's official web portal to all federal, state and local government web resources and services.